Regional Weather Roundup
Issued by NWS

Home | Current Version | Previous Version | Text Only | Print | Product List | Glossary Off
Versions: 1 2 3 4 5 6 7 8 9 10 11 12 13 14 15 16 17 18 19 20 21 22 23 24 25 26 27 28 29 30 31 32 33 34 35 36 37 38 39 40 41 42 43 44 45 46 47 48 49 50

000
ASUS43 KLOT 282304
RWRIL

ILLINOIS REGIONAL WEATHER ROUNDUP
NATIONAL WEATHER SERVICE CHICAGO/ROMEOVILLE IL
600 PM CDT SAT MAY 28 2016

NOTE: "FAIR" INDICATES FEW OR NO CLOUDS BELOW 12,000 FEET WITH NO
SIGNIFICANT WEATHER AND/OR OBSTRUCTIONS TO VISIBILITY.

* THESE STATIONS ARE NOT UNDER NWS QUALITY CONTROL. THEY ALSO MAY NOT
  REPORT WEATHER SUCH AS PRECIPITATION OR FOG.

ILZ001-002-007-009-015-016-024-290000-
NORTHWEST ILLINOIS

CITY           SKY/WX    TMP DP  RH WIND       PRES   REMARKS
MOLINE         CLOUDY    75  68  78 S6        29.82S
STERLING*      MOSUNNY   82  62  50 S8G18     29.83R HX  83
$$

ILZ003-004-008-010-011-017-018-290000-
NORTH CENTRAL ILLINOIS

CITY           SKY/WX    TMP DP  RH WIND       PRES   REMARKS
ROCKFORD       MOSUNNY   85  58  39 S25G32    29.84F HX  84
FREEPORT*      MOSUNNY   80  62  52 S22G30    29.83S HX  81
ROCHELLE*      SUNNY     85  58  40 S26G35    29.84S HX  84
$$

ILZ005-006-012>014-019>023-290000-
NORTHEAST ILLINOIS

CITY           SKY/WX    TMP DP  RH WIND       PRES   REMARKS
CHICAGO-OHARE  MOSUNNY   81  66  60 S20G28    29.87F HX  83
CHICAGO-MIDWAY MOSUNNY   83  63  50 S20G31    29.88F HX  84
AURORA         MOSUNNY   84  64  50 S18G28    29.86F HX  85
LANSING*       MOSUNNY   81  63  54 S16       29.91S HX  82
WAUKEGAN       SUNNY     79  64  60 SE12G26   29.86F HX  81
DUPAGE AIRPORT MOSUNNY   82  64  54 S21G30    29.86F HX  83
WHEELING       MOSUNNY   80  65  59 S22G29    29.87F HX  82
NORTHERLY ISL    N/A     80  60  50 S20         N/A  HX  81
NORTHERLY ISL    N/A     80  60  50 S20         N/A  HX  81
$$

LMZ740>746-290000-
SOUTHERN LAKE MICHIGAN

STATION/POSITION SKY/WX   TEMP    WIND        PRES    VSBY  WAVE
                          AIR SEA DIR/SP/G                  HT/PER
                          (F)     (DEG/KT/KT) (MB)    (MI)  (FT/S)
SOUTHERN BUOY              58 50  160/ 10/ 12 1012.5          1/ 4
WILMETTE HARBOR            62 54  170/ 10/ 12   N/A           2/ 3
HARRISON CRIB              77     190/ 21/ 22   N/A
BURNHAM HARBOR             80     180/ 16/ 20   N/A
CALUMET HARBOR                    190/ 14/ 23   N/A
BURNS HARBOR               81     190/ 17/ 26 1013.2F
MICHIGAN CITY              80     170/ 14/ 19   N/A
MICHIGAN CITY 6N           72 57  200/ 12/ 17   N/A           2/ 3
ST. JOSEPH                 70 61  190/ 10/ 12   N/A           2/ 4
$$

ILZ025>027-034>036-040-047-049-050-058-095>099-290000-
WEST-CENTRAL ILLINOIS

CITY           SKY/WX    TMP DP  RH WIND       PRES   REMARKS
QUINCY         MOSUNNY   81  62  52 SW15G28   29.86R HX  82
MACOMB*        CLOUDY    76  64  67 S12       29.88S
PITTSFIELD*    CLOUDY    81  68  65 S10G20    29.88S HX  83
$$

ILZ028>032-037-038-041>044-048-051>054-059>061-290000-
CENTRAL ILLINOIS

CITY           SKY/WX    TMP DP  RH WIND       PRES   REMARKS
BLOOMINGTON    MOSUNNY   82  69  64 S23G30    29.91S HX  85
DECATUR        PTSUNNY   80  67  64 S20G29    29.92F HX  82
PEORIA         PTSUNNY   83  62  49 S23G32    29.86R HX  84
LINCOLN*       MOSUNNY   84  67  56 S21G26    29.89S HX  87
SPRINGFIELD    MOSUNNY   83  67  58 S18G25    29.89S HX  85
TAYLORVILLE    NOT AVBL
$$

ILZ033-039-045-046-055>057-062-063-290000-
EAST-CENTRAL ILLINOIS

CITY           SKY/WX    TMP DP  RH WIND       PRES   REMARKS
CHAMPAIGN      SUNNY     82  65  56 S22G35    29.94F HX  84
MATTOON        MOSUNNY   79  66  64 S15       29.95F HX  81
$$

ILZ079-100>102-290000-
SOUTHWEST ILLINOIS

CITY           SKY/WX    TMP DP  RH WIND       PRES   REMARKS
ALTON          PTSUNNY   81  66  61 S18       29.92F HX  83
CAHOKIA*       CLOUDY    83  66  56 S10G16    29.92S HX  85
SPARTA*        MOSUNNY   79  68  69 S10       29.96F HX  82
$$

ILZ064>066-069>071-074>076-080>082-084>086-088>090-092>094-290000-
SOUTH-CENTRAL ILLINOIS

CITY           SKY/WX    TMP DP  RH WIND       PRES   REMARKS
CARBONDALE     CLOUDY    81  67  62 S10G21    29.98S HX  83
EFFINGHAM*     MOSUNNY   79  69  70 SE8       29.98S HX  82
MARION         PTSUNNY   79  68  69 S9        30.00S HX  81
MT. VERNON     CLOUDY    79  66  65 S8        29.99S HX  81
SALEM*         CLOUDY    80  67  63 S13G20    29.96F HX  82
$$

ILZ067-068-072-073-078-083-087-091-290000-
SOUTHEAST ILLINOIS

CITY           SKY/WX    TMP DP  RH WIND       PRES   REMARKS
LAWRENCEVILLE  CLOUDY    82  65  56 S18       30.00S HX  84
FLORA*         CLOUDY    82  69  64 S9        29.98S HX  84
HARRISBURG*    MOSUNNY   80  68  66 S7        30.00S HX  83
ROBINSON*      PTSUNNY   79  67  66 S12G17    30.00S HX  81
$$

ABBREVIATIONS USED IN REMARKS
   TC - TEMPERATURE IN CELSIUS
  WCI - WIND CHILL INDEX
   HX - HEAT INDEX
  VSB - VISIBILITY
$$





USA.gov is the U.S. government's official web portal to all federal, state and local government web resources and services.